Location: Gro�sch�nbrunn
(49.5760°N, 11.8868°E)
Time: 13:53:44
(UTC+00:00)

ATLAS 2AS CENTAUR R/B - Pass Details

Date: 18 September 2020
Orbit: 939 x 1273 km, 63.7° (Epoch: 19 October)

Event Time Altitude Azimuth Distance (km) Brightness Sun altitude
Rises 21:02:39 0° 222° (SW) 4,203 5.7 -32.5°
Enters shadow 21:04:48 - 223° (SW) 3,468 5.3 -32.7°
Exits shadow 21:11:56 63° 234° (SW) 1,399 3.1 -33.4°
Maximum altitude 21:13:25 84° 313° (NW) 1,282 2.9 -33.5°
Drops below altitude 10° 21:21:18 10° 42° (NE) 3,213 5.3 -34.2°
Sets 21:24:02 0° 43° (NE) 4,150 6.0 -34.5°
